GW3881 Weather Reports


time (UTC)temp
C
wind
direction
speed
KPH
gust
KPH
rain 1hr
cm
rain 24hr
cm
rain mn
cm
humidity
%
barometer
mb
20260906091259 21 222 0.0 3.2 0.00 0.00 0.00 95 1233.4
20260906090756 21 126 6.4 8.0 0.00 0.00 0.00 95 1233.4
20260906090255 21 109 9.7 12.9 0.00 0.00 0.00 95 1233.4
20260906085754 21 74 11.3 12.9 0.00 0.00 0.00 95 1233.4
20260906085253 21 228 3.2 4.8 0.00 0.00 0.00 96 1233.4
20260906084749 21 25 4.8 8.0 0.00 0.00 0.00 96 1233.4
20260906084248 21 175 8.0 12.9 0.00 0.00 0.00 96 1233.4
20260906083743 21 87 11.3 12.9 0.00 0.00 0.00 96 1233.4
20260906083239 21 74 3.2 8.0 0.00 0.00 0.00 97 1233.4
20260906082733 21 99 1.6 3.2 0.00 0.00 0.00 97 1233.4
20260906082228 21 67 3.2 4.8 0.00 0.00 0.00 97 1233.4
20260906081725 21 161 1.6 4.8 0.00 0.00 0.00 97 1233.4
20260906081219 21 63 8.0 9.7 0.00 0.00 0.00 97 1233.4
20260906080716 21 55 3.2 4.8 0.00 0.00 0.00 96 1233.4
20260906080212 21 79 6.4 8.0 0.00 0.00 0.00 96 1233.4
20260906075712 21 24 1.6 3.2 0.00 0.00 0.00 96 1233.4
20260906075206 21 182 1.6 3.2 0.00 0.00 0.00 96 1233.4
20260906074701 21 131 4.8 4.8 0.00 0.00 0.00 95 1233.4
20260906074201 21 198 3.2 4.8 0.00 0.00 0.00 95 1233.4
20260906073656 21 90 1.6 3.2 0.00 0.00 0.00 95 1233.4
20260906073151 22 218 6.4 8.0 0.00 0.00 0.00 95 1233.4
20260906072646 22 60 1.6 3.2 0.00 0.00 0.00 95 1233.4
20260906072142 22 72 9.7 16.1 0.00 0.00 0.00 94 1233.4
20260906071638 22 90 4.8 8.0 0.00 0.00 0.00 94 1233.4
20260906071137 22 113 4.8 4.8 0.00 0.00 0.00 94 1233.4
20260906070635 22 72 4.8 8.0 0.00 0.00 0.00 94 1233.4
20260906070130 22 85 6.4 8.0 0.00 0.00 0.00 93 1233.4
20260906065629 22 104 4.8 4.8 0.00 0.00 0.00 93 1233.4
20260906065125 22 149 4.8 8.0 0.00 0.00 0.00 94 1233.4
20260906064620 22 89 4.8 4.8 0.00 0.00 0.00 94 1233.4
20260906064115 22 286 0.0 0.0 0.00 0.00 0.00 94 1233.4
20260906063616 22 228 3.2 4.8 0.00 0.00 0.00 93 1233.4
20260906063112 22 4 3.2 4.8 0.00 0.00 0.00 93 1233.4
20260906062607 22 345 1.6 3.2 0.00 0.00 0.00 93 1233.4
20260906062106 22 319 1.6 3.2 0.00 0.00 0.00 93 1233.4
20260906061603 22 359 1.6 3.2 0.00 0.00 0.00 93 1233.4
20260906061102 22 312 0.0 3.2 0.00 0.00 0.00 93 1233.4
20260906060559 22 264 1.6 3.2 0.00 0.00 0.00 93 1233.4
20260906060055 22 333 6.4 8.0 0.00 0.00 0.00 93 1233.4
20260906055551 22 64 3.2 4.8 0.00 0.00 0.00 93 1233.4
20260906055046 22 17 1.6 3.2 0.00 0.00 0.00 93 1233.4
20260906054541 22 283 0.0 3.2 0.00 0.00 0.00 93 1233.4
20260906054036 22 301 0.0 0.0 0.00 0.00 0.00 92 1233.4
20260906053532 22 59 3.2 4.8 0.00 0.00 0.00 93 1233.4
20260906053028 22 65 1.6 3.2 0.00 0.00 0.00 93 1233.4
20260906052523 22 305 3.2 4.8 0.00 0.00 0.00 92 1233.4
20260906052020 23 47 3.2 8.0 0.00 0.00 0.00 92 1233.4
20260906051516 23 192 1.6 3.2 0.00 0.00 0.00 91 1233.4
20260906051011 23 177 1.6 3.2 0.00 0.00 0.00 92 1233.4
20260906050511 23 164 3.2 4.8 0.00 0.00 0.00 92 1233.4
20260906050006 23 184 3.2 3.2 0.00 0.00 0.00 91 1233.4
20260906045504 23 68 3.2 4.8 0.00 0.00 0.00 91 1233.4
20260906045000 23 47 3.2 4.8 0.00 0.00 0.00 91 1233.4
20260906044455 23 74 6.4 12.9 0.00 0.00 0.00 91 1233.4
20260906043951 23 32 1.6 3.2 0.00 0.00 0.00 91 1233.4
20260906043447 23 40 8.0 9.7 0.00 0.00 0.00 91 1233.4
20260906042942 23 80 1.6 4.8 0.00 0.00 0.00 91 1233.4
20260906042441 23 328 0.0 3.2 0.00 0.00 0.00 91 1233.4
20260906041936 23 349 3.2 4.8 0.00 0.00 0.00 91 1233.4
20260906041433 23 235 0.0 0.0 0.00 0.00 0.00 90 1233.4
20260906040932 23 173 3.2 4.8 0.00 0.00 0.00 90 1233.4
20260906040427 23 222 3.2 4.8 0.00 0.00 0.00 90 1233.4
20260906035922 23 294 0.0 0.0 0.00 0.00 0.00 89 1233.4
20260906035418 23 145 0.0 3.2 0.00 0.00 0.00 89 1233.4
20260906034913 23 53 1.6 3.2 0.00 0.00 0.00 88 1233.4
20260906034413 23 18 1.6 3.2 0.00 0.00 0.00 88 1233.4
20260906033909 23 122 4.8 4.8 0.00 0.00 0.00 89 1233.4
20260906033408 23 48 4.8 8.0 0.00 0.00 0.00 89 1233.4
20260906032905 23 83 3.2 4.8 0.00 0.00 0.00 89 1233.4
20260906032401 23 183 0.0 3.2 0.00 0.00 0.00 89 1233.4
20260906031901 23 195 4.8 8.0 0.00 0.00 0.00 89 1233.4
20260906031356 23 26 1.6 4.8 0.00 0.00 0.00 90 1233.4
20260906030851 24 56 1.6 3.2 0.00 0.00 0.00 90 1233.4
20260906030347 24 105 4.8 8.0 0.00 0.00 0.00 90 1233.4
20260906025846 24 32 3.2 4.8 0.00 0.00 0.00 90 1233.4
20260906025341 24 43 4.8 8.0 0.00 0.00 0.00 90 1233.4
20260906024840 24 64 3.2 4.8 0.00 0.00 0.00 91 1233.4
20260906024339 24 52 3.2 8.0 0.00 0.00 0.00 90 1233.4
20260906023834 24 173 0.0 0.0 0.00 0.00 0.00 90 1233.4
20260906023330 24 133 1.6 4.8 0.00 0.00 0.00 90 1233.4
20260906022825 24 73 4.8 9.7 0.00 0.00 0.00 90 1233.4
20260906022321 24 67 4.8 8.0 0.00 0.00 0.00 90 1233.4
20260906021816 25 48 3.2 4.8 0.00 0.00 0.00 90 1233.4
20260906021315 25 77 8.0 9.7 0.00 0.00 0.00 89 1233.4
20260906020816 25 126 4.8 4.8 0.00 0.00 0.00 89 1233.4
20260906020315 25 43 4.8 8.0 0.00 0.00 0.00 89 1233.4
20260906015810 25 61 1.6 3.2 0.00 0.00 0.00 89 1233.4
20260906015309 25 317 4.8 9.7 0.00 0.00 0.00 89 1233.4
20260906014809 25 69 4.8 8.0 0.00 0.00 0.00 89 1233.4
20260906014304 25 41 3.2 4.8 0.00 0.00 0.00 89 1233.4
20260906013801 25 307 1.6 3.2 0.00 0.00 0.00 89 1233.4
20260906013301 25 277 0.0 0.0 0.00 0.00 0.00 89 1233.4
20260906012756 25 246 0.0 0.0 0.00 0.00 0.00 89 1233.4
20260906012251 25 261 0.0 0.0 0.00 0.00 0.00 89 1233.4
20260906011746 25 285 0.0 3.2 0.00 0.00 0.00 89 1233.4
20260906011246 25 185 1.6 3.2 0.00 0.00 0.00 88 1233.4
20260906010742 25 330 0.0 0.0 0.00 0.00 0.00 88 1233.4
20260906010238 25 337 1.6 4.8 0.00 0.00 0.00 89 1233.4
20260906005733 25 294 1.6 3.2 0.00 0.00 0.00 87 1233.4
20260906005232 25 204 1.6 3.2 0.00 0.00 0.00 87 1233.4
20260906004731 25 329 3.2 3.2 0.00 0.00 0.00 86 1233.4
20260906004227 26 321 1.6 3.2 0.00 0.00 0.00 87 1233.4
20260906003721 26 325 1.6 3.2 0.00 0.00 0.00 86 1233.4
20260906003217 26 329 0.0 0.0 0.00 0.00 0.00 86 1233.4
20260906002717 26 169 0.0 3.2 0.00 0.00 0.00 86 1233.4
20260906002212 26 11 3.2 4.8 0.00 0.00 0.00 86 1233.4
20260906001707 26 333 1.6 3.2 0.00 0.00 0.00 85 1233.4
20260906001207 26 262 0.0 0.0 0.00 0.00 0.00 85 1233.4
20260906000703 26 276 0.0 3.2 0.00 0.00 0.00 84 1233.4
20260906000158 26 292 1.6 3.2 0.00 0.00 0.00 84 1233.4
20260905235657 26 56 4.8 8.0 0.00 0.00 0.00 84 1233.4
20260905235152 27 152 4.8 8.0 0.00 0.00 0.00 83 1233.4
20260905234647 27 103 6.4 9.7 0.00 0.00 0.00 83 1233.4
20260905234143 27 196 1.6 3.2 0.00 0.00 0.00 82 1233.4
20260905233638 27 297 1.6 3.2 0.00 0.00 0.00 81 1233.4
20260905233137 27 181 3.2 4.8 0.00 0.00 0.00 81 1233.4
20260905232632 27 340 3.2 4.8 0.00 0.00 0.00 81 1233.4
20260905232128 27 34 4.8 8.0 0.00 0.00 0.00 81 1233.4
20260905231623 27 109 6.4 12.9 0.00 0.00 0.00 81 1233.4
20260905231119 27 133 4.8 8.0 0.00 0.00 0.00 81 1233.4
20260905230615 28 10 4.8 9.7 0.00 0.00 0.00 80 1233.4
20260905230113 28 90 11.3 16.1 0.00 0.00 0.00 80 1233.4
20260905225612 28 87 8.0 9.7 0.00 0.00 0.00 80 1233.4
20260905225108 28 90 3.2 4.8 0.00 0.00 0.00 80 1233.4
20260905224607 28 87 9.7 9.7 0.00 0.00 0.00 80 1233.4
20260905224107 29 42 8.0 9.7 0.00 0.00 0.00 80 1233.4
20260905223604 29 8 8.0 12.9 0.00 0.00 0.00 79 1233.4
20260905223101 30 43 9.7 12.9 0.00 0.00 0.00 79 1233.4
20260905222600 30 358 8.0 16.1 0.00 0.00 0.00 80 1233.4
20260905222055 30 84 4.8 8.0 0.00 0.00 0.00 79 1233.4
20260905221552 30 30 9.7 9.7 0.00 0.00 0.00 78 1233.4
20260905221047 30 153 8.0 9.7 0.00 0.00 0.00 78 1233.4
20260905220543 30 233 3.2 4.8 0.00 0.00 0.00 77 1233.4
20260905220039 31 26 4.8 9.7 0.00 0.00 0.00 74 1233.4
20260905215538 31 143 3.2 4.8 0.00 0.00 0.00 75 1233.4
20260905215034 31 232 6.4 12.9 0.00 0.00 0.00 75 1233.4
20260905214530 31 25 9.7 12.9 0.00 0.00 0.00 73 1233.4
20260905214025 31 59 3.2 4.8 0.00 0.00 0.00 74 1233.4
20260905213520 31 98 9.7 12.9 0.00 0.00 0.00 74 1233.4
20260905213016 31 4 4.8 4.8 0.00 0.00 0.00 75 1233.4
20260905212511 31 75 4.8 9.7 0.00 0.00 0.00 72 1233.4
20260905212010 31 314 14.5 20.9 0.00 0.00 0.00 74 1233.4
20260905211505 31 19 4.8 8.0 0.00 0.00 0.00 73 1233.4
20260905211001 32 63 9.7 12.9 0.00 0.00 0.00 73 1233.4
20260905210457 32 256 3.2 4.8 0.00 0.00 0.00 72 1233.4
20260905205955 32 279 1.6 3.2 0.00 0.00 0.00 73 1233.4
20260905205451 31 342 9.7 12.9 0.00 0.00 0.00 74 1233.4
20260905204949 31 324 9.7 12.9 0.00 0.00 0.00 73 1233.4
20260905204445 32 284 6.4 8.0 0.00 0.00 0.00 73 1233.4
20260905203944 32 171 3.2 8.0 0.00 0.00 0.00 71 1233.4
20260905203440 31 279 3.2 3.2 0.00 0.00 0.00 73 1233.4
20260905202936 32 13 4.8 8.0 0.00 0.00 0.00 73 1233.4
20260905202431 32 265 1.6 3.2 0.00 0.00 0.00 73 1233.4
20260905201926 32 331 6.4 8.0 0.00 0.00 0.00 72 1233.4
20260905201421 32 215 8.0 9.7 0.00 0.00 0.00 72 1233.4
20260905200921 32 252 4.8 8.0 0.00 0.00 0.00 74 1233.4
20260905200417 32 26 8.0 9.7 0.00 0.00 0.00 72 1233.4
20260905195915 32 274 9.7 12.9 0.00 0.00 0.00 72 1233.4
20260905195410 32 56 6.4 8.0 0.00 0.00 0.00 70 1233.4
20260905194906 32 69 6.4 9.7 0.00 0.00 0.00 72 1233.4
20260905194406 32 41 3.2 4.8 0.00 0.00 0.00 73 1233.4
20260905193906 32 64 4.8 8.0 0.00 0.00 0.00 73 1233.4
20260905193400 32 60 4.8 8.0 0.00 0.00 0.00 73 1233.4
20260905192856 32 210 3.2 4.8 0.00 0.00 0.00 74 1233.4
20260905192351 32 356 4.8 8.0 0.00 0.00 0.00 72 1233.4
20260905191851 32 331 3.2 4.8 0.00 0.00 0.00 74 1233.4
20260905191350 31 349 3.2 8.0 0.00 0.00 0.00 75 1233.4
20260905190850 32 316 8.0 12.9 0.00 0.00 0.00 74 1233.4
20260905190348 32 310 8.0 9.7 0.00 0.00 0.00 74 1233.4
20260905185847 32 347 6.4 8.0 0.00 0.00 0.00 72 1233.4
20260905185343 31 280 1.6 3.2 0.00 0.00 0.00 75 1233.4
20260905184842 32 255 3.2 8.0 0.00 0.00 0.00 76 1233.4
20260905184341 32 6 3.2 4.8 0.00 0.00 0.00 74 1233.4
20260905183839 32 277 3.2 4.8 0.00 0.00 0.00 73 1233.4
20260905183335 32 345 11.3 16.1 0.00 0.00 0.00 73 1233.4
20260905182836 31 250 1.6 3.2 0.00 0.00 0.00 76 1233.4
20260905182335 31 320 4.8 8.0 0.00 0.00 0.00 74 1233.4
20260905181831 31 253 3.2 4.8 0.00 0.00 0.00 75 1233.4
20260905181330 32 229 1.6 3.2 0.00 0.00 0.00 72 1233.4
20260905180829 32 252 0.0 0.0 0.00 0.00 0.00 73 1233.4
20260905180325 31 322 1.6 4.8 0.00 0.00 0.00 76 1233.4
20260905175819 31 60 9.7 12.9 0.00 0.00 0.00 77 1233.4
20260905175314 32 4 3.2 3.2 0.00 0.00 0.00 74 1233.4
20260905174809 31 75 4.8 8.0 0.00 0.00 0.00 76 1233.4
20260905174305 31 43 9.7 12.9 0.00 0.00 0.00 76 1233.4
20260905173801 31 12 4.8 8.0 0.00 0.00 0.00 77 1233.4
20260905173257 31 326 3.2 4.8 0.00 0.00 0.00 77 1233.4
20260905172756 31 107 8.0 8.0 0.00 0.00 0.00 76 1233.4
20260905172254 31 51 4.8 8.0 0.00 0.00 0.00 77 1233.4
20260905171751 31 236 1.6 3.2 0.00 0.00 0.00 78 1233.4
20260905171247 31 89 4.8 8.0 0.00 0.00 0.00 77 1233.4
20260905170743 31 78 4.8 4.8 0.00 0.00 0.00 77 1233.4
20260905170239 30 21 8.0 9.7 0.00 0.00 0.00 77 1233.4
20260905165738 30 15 6.4 9.7 0.00 0.00 0.00 77 1233.4
20260905165234 30 156 8.0 9.7 0.00 0.00 0.00 78 1233.4
20260905164733 30 103 8.0 12.9 0.00 0.00 0.00 78 1233.4
20260905164228 30 93 6.4 9.7 0.00 0.00 0.00 78 1233.4
20260905163724 30 11 9.7 17.7 0.00 0.00 0.00 78 1233.4
20260905163220 31 121 4.8 9.7 0.00 0.00 0.00 77 1233.4
20260905162716 30 302 3.2 4.8 0.00 0.00 0.00 79 1233.4
20260905162216 30 116 14.5 16.1 0.00 0.00 0.00 79 1233.4
20260905161711 30 218 1.6 3.2 0.00 0.00 0.00 78 1233.4
20260905161209 30 90 12.9 16.1 0.00 0.00 0.00 76 1233.4
20260905160708 30 112 8.0 12.9 0.00 0.00 0.00 76 1233.4
20260905160207 30 108 3.2 4.8 0.00 0.00 0.00 77 1233.4
20260905155702 30 341 8.0 9.7 0.00 0.00 0.00 77 1233.4
20260905155201 30 59 8.0 12.9 0.00 0.00 0.00 77 1233.4
20260905154655 30 58 6.4 9.7 0.00 0.00 0.00 77 1233.4
20260905154151 29 41 4.8 8.0 0.00 0.00 0.00 79 1233.4
20260905153647 30 76 8.0 9.7 0.00 0.00 0.00 77 1233.4
20260905153142 30 84 4.8 9.7 0.00 0.00 0.00 78 1233.4
20260905152637 30 125 6.4 12.9 0.00 0.00 0.00 77 1233.4
20260905152131 29 42 11.3 12.9 0.00 0.00 0.00 79 1233.4
20260905151626 29 318 8.0 12.9 0.00 0.00 0.00 79 1233.4
20260905151122 30 333 3.2 4.8 0.00 0.00 0.00 78 1233.4
20260905150617 29 4 6.4 9.7 0.00 0.00 0.00 79 1233.4
20260905150115 28 320 6.4 9.7 0.00 0.00 0.00 81 1233.4
20260905145614 29 17 4.8 8.0 0.00 0.00 0.00 79 1233.4
20260905145113 28 1 1.6 3.2 0.00 0.00 0.00 82 1233.4
20260905144608 28 347 6.4 8.0 0.00 0.00 0.00 82 1233.4
20260905144108 28 278 4.8 8.0 0.00 0.00 0.00 83 1233.4
20260905143607 27 336 1.6 4.8 0.00 0.00 0.00 85 1233.4
20260905143102 27 299 4.8 4.8 0.00 0.00 0.00 85 1233.4
20260905142602 27 277 0.0 0.0 0.00 0.00 0.00 86 1233.4
20260905142102 27 54 6.4 8.0 0.00 0.00 0.00 86 1233.4
20260905141601 27 20 9.7 12.9 0.00 0.00 0.00 86 1233.4
20260905141058 27 259 3.2 3.2 0.00 0.00 0.00 86 1233.4
20260905140553 27 340 3.2 4.8 0.00 0.00 0.00 87 1233.4
20260905140052 27 9 4.8 4.8 0.00 0.00 0.00 88 1233.4
20260905135547 27 242 0.0 0.0 0.00 0.00 0.00 87 1233.4
20260905135047 27 257 3.2 3.2 0.00 0.00 0.00 88 1233.4
20260905134542 27 171 1.6 3.2 0.00 0.00 0.00 88 1233.4
20260905134041 27 234 0.0 0.0 0.00 0.00 0.00 88 1233.4
20260905133537 27 296 0.0 0.0 0.00 0.00 0.00 89 1233.4
20260905133036 26 341 3.2 4.8 0.00 0.00 0.00 90 1233.4
20260905132536 26 283 0.0 0.0 0.00 0.00 0.00 90 1233.4
20260905132031 26 74 0.0 0.0 0.00 0.00 0.00 90 1233.4
20260905131527 26 274 0.0 0.0 0.00 0.00 0.00 90 1233.4
20260905131022 26 249 0.0 0.0 0.00 0.00 0.00 90 1233.4
20260905130521 25 238 0.0 0.0 0.00 0.00 0.00 92 1233.4
20260905130016 25 263 0.0 0.0 0.00 0.00 0.00 94 1233.4
20260905125515 25 262 0.0 0.0 0.00 0.00 0.00 95 1233.4
20260905125011 24 241 0.0 0.0 0.00 0.00 0.00 96 1233.4
20260905124508 23 240 0.0 0.0 0.00 0.00 0.00 97 1233.4
20260905124003 23 278 1.6 3.2 0.00 0.00 0.00 97 1233.4
20260905123459 23 280 0.0 0.0 0.00 0.00 0.00 98 1233.4
20260905122955 23 289 1.6 3.2 0.00 0.00 0.00 98 1233.4
20260905122455 23 287 3.2 4.8 0.00 0.00 0.00 98 1233.4
20260905121950 23 8 4.8 4.8 0.00 0.00 0.00 98 1233.4
20260905121445 23 318 3.2 4.8 0.00 0.00 0.00 98 1233.4
20260905120944 22 288 0.0 0.0 0.00 0.00 0.00 99 1233.4
20260905120439 22 254 0.0 0.0 0.00 0.00 0.00 99 1233.4
20260905115934 22 252 0.0 0.0 0.00 0.00 0.00 99 1233.4
20260905115433 22 259 0.0 0.0 0.00 0.00 0.00 99 1233.4
20260905114929 22 272 0.0 0.0 0.00 0.00 0.00 99 1233.4
20260905114428 22 283 0.0 0.0 0.00 0.00 0.00 99 1233.4
20260905113927 22 280 0.0 0.0 0.00 0.00 0.00 99 1233.4
20260905113422 22 253 0.0 0.0 0.00 0.00 0.00 99 1233.4
20260905112918 22 246 0.0 0.0 0.00 0.00 0.00 99 1233.4
20260905112413 22 257 0.0 0.0 0.00 0.00 0.00 99 1233.4
20260905111908 22 264 0.0 0.0 0.00 0.00 0.00 99 1233.4
20260905111408 22 263 0.0 0.0 0.00 0.00 0.00 99 1233.4
20260905110902 22 263 0.0 0.0 0.00 0.00 0.00 99 1233.4
20260905110356 22 263 0.0 0.0 0.00 0.00 0.00 99 1233.4
20260905105852 22 263 0.0 0.0 0.00 0.00 0.00 99 1233.4
20260905105351 22 263 0.0 0.0 0.00 0.00 0.00 99 1233.4
20260905104850 22 249 0.0 0.0 0.00 0.00 0.00 99 1233.4
20260905104347 22 249 0.0 0.0 0.00 0.00 0.00 99 1233.4
20260905103847 22 249 0.0 0.0 0.00 0.00 0.00 99 1233.4
20260905103342 22 248 0.0 0.0 0.00 0.00 0.00 99 1233.4
20260905102838 22 249 0.0 0.0 0.00 0.00 0.00 99 1233.4
20260905102335 22 249 0.0 0.0 0.00 0.00 0.00 98 1233.4
20260905101834 22 245 0.0 0.0 0.00 0.00 0.00 98 1233.4
20260905101333 22 275 0.0 0.0 0.00 0.00 0.00 98 1233.4
20260905100827 22 272 0.0 0.0 0.00 0.00 0.00 98 1233.4
20260905100324 22 267 0.0 0.0 0.00 0.00 0.00 99 1233.4
20260905095823 22 267 0.0 0.0 0.00 0.00 0.00 99 1233.4
20260905095323 22 267 0.0 0.0 0.00 0.00 0.00 98 1233.4
20260905094817 23 267 0.0 0.0 0.00 0.00 0.00 98 1233.4
20260905094313 23 267 0.0 0.0 0.00 0.00 0.00 98 1233.4
20260905093812 23 267 0.0 0.0 0.00 0.00 0.00 98 1233.4
20260905093308 23 269 0.0 0.0 0.00 0.00 0.00 98 1233.4
20260905092804 23 258 0.0 0.0 0.00 0.00 0.00 98 1233.4
20260905092258 23 262 0.0 0.0 0.00 0.00 0.00 98 1233.4
20260905091759 23 274 0.0 0.0 0.00 0.00 0.00 98 1233.4